www.pogodaiklimat.ru

Погода и климат >> Архив погоды >> Россия >> Якутия >> Джарджан


АРХИВ ПОГОДЫ в Джарджане

Время (UTC), дата Ветер
(напр.,м/с)
 
Видим.   Явления Облачность Т
(С)
Тd
(С)
f
(%)
Тe
(С)
Тes
(С)
Комфортность P
(гПа)
Po
(гПа)
Тmin
(С)
Tmax
(С)
R
(мм)
R24
(мм)
S
(см)
06 17.02 Ю 3 50 км 10/0
[Ac trans]
-26.3 -29.4 75 -35 -35 опасность
обморожения
1007.7 1002.4
09 17.02 Ю 4 50 км 10/0
[Ac trans]
-26.1 -29.2 75 -36 -36 опасность
обморожения
1007.6 1002.3
12 17.02 Ю 3 50 км 10/0
[Ac As]
-24.1 -27.3 75 -33 -33 опасность
обморожения
1007.9 1002.6 -24.1
15 17.02 Ю 3 20 км слаб. снег 10/0
[Ac As]
-23.8 -27.0 75 -32 -32 опасность
обморожения
1007.9 1002.6
18 17.02 Ю 2 50 км {снег} 6/0
[Ac trans]
-26.1 -29.2 75 -33 -33 опасность
обморожения
1008.7 1003.4
21 17.02 штиль 0 50 км 8/0
[Ac trans Ci fib]
-29.2 -33.2 68 -29 -29 1009.5 1004.1
00 18.02 штиль 0 50 км 10/0
[Ac trans Ci fib]
-30.0 -33.0 75 -30 -30 1010.2 1004.8 -30.0 0.5 35
03 18.02 ЮЗ 1 50 км 3/0
[Ci fib]
-29.9 -33.7 69 -34 -33 опасность
обморожения
1010.4 1005.0
06 18.02 З 1 50 км 4/0
[Ci fib]
-27.5 -31.3 70 -31 -31 опасность
обморожения
1010.7 1005.2
09 18.02 штиль 0 50 км 4/0
[Ci fib]
-20.5 -31.9 35 -21 -21 1011.2 1005.7
12 18.02 ЮВ 1 50 км 8/0
[Ac trans Ci fib]
-30.6 -33.6 75 -35 -35 опасность
обморожения
1011.7 1006.2 -27.5
15 18.02 Ю 3 50 км 10/0
[Ac trans Ci fib]
-28.5 -31.5 75 -38 -38 опасность
обморожения
1012.2 1006.7
18 18.02 Ю 3 50 км 6/0
[Ac trans]
-29.9 -33.0 74 -39 -39 опасность
обморожения
1012.2 1006.7
21 18.02 Ю 2 50 км 10/0
[Ac trans]
-28.4 -31.5 75 -36 -36 опасность
обморожения
1012.1 1006.6
00 19.02 В 2 50 км 4/0
[Ac trans]
-29.3 -32.4 74 -37 -37 опасность
обморожения
1012.3 1006.8 -30.6 31
03 19.02 штиль 0 50 км 3/0
[Ci fib]
-25.2 -28.4 75 -25 -24 1012.3 1006.9
06 19.02 ЮЗ 2 50 км 1/0
[Ci fib]
-25.5 -28.6 75 -32 -32 опасность
обморожения
1012.5 1007.1
09 19.02 штиль 0 50 км 4/0
[Ac trans Ci fib]
-27.1 -30.1 76 -27 -27 1013.2 1007.8
12 19.02 штиль 0 50 км 4/0
[Ci fib]
-28.4 -30.8 80 -28 -28 1014.4 1008.9 -25.2
15 19.02 штиль 0 50 км 6/0
[Cs]
-31.3 -34.2 75 -31 -31 опасность
обморожения
1015.4 1009.9
18 19.02 штиль 0 50 км 6/0
[Cs]
-30.5 -33.4 76 -31 -31 опасность
обморожения
1016.0 1010.5
21 19.02 штиль 0 50 км 6/0
[Cs]
-31.1 -34.0 75 -31 -31 опасность
обморожения
1017.1 1011.6
00 20.02 штиль 0 50 км 6/0
[Ac trans Cs]
-32.5 -35.5 74 -33 -33 опасность
обморожения
1018.0 1012.4 -32.5 31
03 20.02 ЮВ 1 50 км ясно -27.5 -30.6 75 -31 -30 опасность
обморожения
1018.5 1013.1
06 20.02 ЮЗ 1 50 км ясно -26.9 -30.0 75 -31 -30 опасность
обморожения
1018.5 1013.2
09 20.02 Ю 1 50 км ясно -25.5 -28.0 79 -29 -29 1019.2 1013.9
12 20.02 штиль 0 50 км ясно -28.4 -31.5 75 -28 -28 1019.2 1013.8 -25.5
15 20.02 штиль 0 50 км ясно -28.8 -31.8 75 -29 -29 1019.2 1013.8
18 20.02 штиль 0 50 км ясно -29.3 -32.4 74 -29 -29 1018.7 1013.3
21 20.02 ЮВ 3 50 км 4/0
[Ci fib]
-29.1 -32.2 74 -39 -39 опасность
обморожения
1018.5 1013.0
00 21.02 Ю 3 50 км 10/0
[Ac trans Ci fib]
-28.4 -31.5 75 -38 -38 опасность
обморожения
1018.2 1012.7 -29.3 31
03 21.02 ЮВ 2 50 км 3/0
[Cs]
-26.8 -30.0 74 -34 -33 опасность
обморожения
1017.3 1011.9
06 21.02 ЮЗ 2 50 км ясно -26.4 -28.8 80 -33 -33 опасность
обморожения
1016.8 1011.4
09 21.02 Ю 3 50 км 9/0
[Ac trans]
-24.3 -26.8 80 -33 -33 опасность
обморожения
1016.7 1011.3
12 21.02 Ю 3 50 км 10/0
[Ac trans]
-23.1 -25.5 81 -31 -31 опасность
обморожения
1016.4 1011.0 -23.1
15 21.02 Ю 4 50 км 10/0
[Ac As]
-23.2 -25.7 80 -33 -33 опасность
обморожения
1016.3 1010.9
18 21.02 Ю 4 20 км слаб. снег 10/0
[Ac As]
-23.3 -26.5 75 -33 -33 опасность
обморожения
1016.5 1011.1
21 21.02 Ю 5 20 км слаб. снег 10/0
[Ac As]
-24.6 -27.7 75 -36 -36 опасность
обморожения
1016.9 1011.5
00 22.02 ЮЗ 5 50 км {снег} 10/0
[Ac As]
-26.0 -29.1 75 -38 -38 опасность
обморожения
1018.1 1012.7 -26.0 0.5 31
03 22.02 ЮЗ 3 50 км 1/0
[Ac As]
-26.4 -29.5 75 -35 -35 опасность
обморожения
1019.4 1014.0
06 22.02 штиль 0 50 км ясно -27.0 -30.9 69 -27 -26 1020.0 1014.6
09 22.02 штиль 0 50 км ясно -28.3 -30.6 81 -28 -28 1021.6 1016.1
12 22.02 штиль 0 50 км ясно -31.2 -34.2 75 -31 -31 опасность
обморожения
1022.2 1016.7 -26.0
15 22.02 штиль 0 50 км ясно -35.3 -39.0 69 -35 -35 опасность
обморожения
1022.3 1016.6
18 22.02 штиль 0 50 км ясно -38.7 -42.7 66 -39 -39 опасность
обморожения
1022.0 1016.2
21 22.02 СВ 1 50 км ясно -39.3 -43.5 64 -44 -44 опасность
обморожения
1021.1 1015.3
00 23.02 СВ 2 50 км 3/0
[Ac trans]
-39.3 -43.5 64 -48 -48 опасность
обморожения
1020.3 1014.6 -40.7 31
03 23.02 штиль 0 50 км 6/0
[Ac trans]
-36.3 -40.7 64 -36 -36 опасность
обморожения
1018.8 1013.2
06 23.02 штиль 0 50 км 9/0
[Ac As]
-33.2 -36.9 69 -33 -33 опасность
обморожения
1017.6 1012.0
09 23.02 Ю 1 50 км 10/0
[Ac As]
-30.7 -33.6 76 -35 -35 опасность
обморожения
1016.1 1010.6
12 23.02 Ю 2 50 км 10/10 600 м
[Cb cap Ac As]
-29.6 -32.6 75 -37 -37 опасность
обморожения
1015.0 1009.5 -29.6
15 23.02 Ю 3 20 км слаб. ливневой снег 10/10 600 м
[Cb cap]
-27.4 -30.4 76 -36 -36 опасность
обморожения
1013.3 1007.9
18 23.02 Ю 2 20 км слаб. ливневой снег 10/10 600 м
[Cb cap]
-26.1 -29.2 75 -33 -33 опасность
обморожения
1011.8 1006.4
21 23.02 Ю 3 50 км {ливн. осадки} 10/0
[Ac As]
-25.9 -29.1 74 -35 -35 опасность
обморожения
1010.5 1005.1
00 24.02 Ю 3 20 км слаб. снег 10/0
[Ac As]
-26.5 -29.7 74 -35 -35 опасность
обморожения
1010.0 1004.7 -30.7 1 31
03 24.02 ЮЗ 3 20 км слаб. снег 6/0
[Ac As]
-26.3 -29.4 75 -35 -35 опасность
обморожения
1010.0 1004.7

 

Местоположение метеостанции Джарджан (Якутия, Россия): широта 68.73 долгота 124.00 высота над уровнем моря 39 м.

В архиве по умолчанию представлена погода в Джарджане за последнюю неделю. Архивные данные за месяц целиком и за предыдущие месяцы, начиная с января 2011 года, Вы можете получить, выбрав интересующий диапазон дат из раскрывающегося списка и нажав кнопку "Ввод!".


*Определитесь, кто Вы:
робот инопланетянин человек

Внимание! Время в таблицах - всемирное. Для получения местного времени необходимо прибавить поправку, которая равна 9 ч.

Смотрите также архив погоды в соседних городах и на ближайших метеорологических станциях:

Погода в Жиганске (Якутия, Россия) (219 км)
Погода в Сухане (Якутия, Россия) (231 км)
Погода в Кюсюре (Якутия, Россия) (253 км)
Погода в Батагай-Алыте (Якутия, Россия) (284 км)
Погода в Тюмяти (Якутия, Россия) (355 км)
Погода в Тикси (Якутия, Россия) (367 км)
Погода в Бестяхской Звероферме (Якутия, Россия) (382 км)
Погода в Екюччю (Якутия, Россия) (387 км)
Погода в Верхоянске (Якутия, Россия) (409 км)
Погода на Мысе Быков (Якутия, Россия) (410 км)

Пояснения к столбцам:

Ветер - указаны скорость ветра в м/с - средняя за 10 мин, порывы в срок и между сроками (в фигурных скобках) и направление, откуда дует ветер: С - северный, СВ - северо-восточный, В - восточный, ЮВ - юго-восточный, Ю - южный, ЮЗ - юго-западный, З - западный, СЗ - северо-западный.
Видимость - горизонтальная дальность видимости в метрах или километрах. При видимости от 1 до 10 км при отсутствии осадков обычно наблюдается дымка, при ухудшении видимости до 1 км и менее - туман. В сухую погоду видимость может ухудшаться дымом, пылью или мглою.
Явления - указаны атмосферные явления, наблюдавшиеся в срок или в последний час перед сроком; фигурными скобками обозначены явления, наблюдавшиеся между сроками (за 1-3 часа до срока); квадратными скобками обозначены град или гололедные отложения с указанием их диаметра в мм.
Облачность - указаны через наклонную черту общая и нижняя облачность в баллах и высота нижней границы облаков в метрах; квадратными скобками обозначены формы облаков: Ci - перистые, Cs - перисто-слоистые, Cc - перисто-кучевые, Ac - высококучевые, As - высокослоистые, Sc - слоисто-кучевые, Ns - слоисто-дождевые, Cu - кучевые, Cb - кучево-дождевые. Подробнее классификацию облаков см. в Атласе облаков (PDF).
T - Температура воздуха - температура, измеренная на высоте 2 м над землей.
Td - Температура точки росы - температура, при понижении до которой содержащийся в воздухе водяной пар достигнет насыщения.
f - Относительная влажность воздуха - влажноcть воздуха, измеренная на высоте 2 м над землей.
Te - Эффективная температура - температура, которую ощущает одетый по сезону человек в тени. Характеристика душности погоды. При расчете учитывается влияние влажности воздуха и скорости ветра на теплоощущения человека.
Tes - Эффективная температура на солнце - температура, которую ощущает человек, с поправкой на солнечный нагрев. Характеристика знойности погоды. Зависит от высоты солнца над горизонтом, облачности и скорости ветра. Ночью, в пасмурную погоду, а также при ветре 12 м/с и более поправка равна нулю.
P - Атмосферное давление - приведенное к уровню моря атмосферное давление.
Po - Атмосферное давление - измеренное на уровне метеостанции атмосферное давление.
Tmin - Минимальная температура - минимум температуры воздуха на высоте 2 м над землей.
Tmax - Максимальная температура - максимум температуры воздуха на высоте 2 м над землей.
R - Количество осадков - Количество выпавших осадков за период времени, мм. При наведении курсора мыши на число - период времени, за который выпало указанное количество осадков.
R24 - Количество осадков - Количество выпавших осадков за 24 часа, мм.
S - Снежный покров - Высота снежного покрова, см. При наведении курсора мыши на число - состояние снежного покрова и степень покрытия местности в баллах.